Location: Unspecified
(0.0000°N, 0.0000°E)
Time: 21:14:11
(UTC+00:00)

Tiros 1 - Pass Details

Date: 25 October 2021
Orbit: 630 x 664 km, 48.4° (Epoch: 04 December)

Event Time Altitude Azimuth Distance (km) Brightness Sun altitude
Rises 05:50:48 0° 203° (SSW) 2,982 10.5 1.6°
Reaches altitude 10° 05:53:20 10° 193° (SSW) 2,072 9.8 2.3°
Maximum altitude 05:57:38 33° 129° (SE) 1,108 9.3 3.3°
Drops below altitude 10° 06:01:56 10° 65° (ENE) 2,071 10.7 4.4°
Sets 06:04:28 0° 56° (NE) 2,980 11.3 5.0°
